Hourly Data Report for July 18, 2021

WINNIPEG THE FORKS
MANITOBA
Current Station Operator: ECCC - MSC

49°53'18.008" N
97°07'46.007" W
230.00 m
5023262
71579
XWN

Download Data

Hourly Data (July 2021)
Hourly Data Report for July 18, 2021
TIME
LST
Temp Definition
°C
Dew Point Definition
°C
Rel Hum Definition
%
Precip. Amount Definition
mm

Wind Dir Definition
10's deg

Wind Spd Definition
km/h
Visibility Definition
km
Stn Press Definition
kPa
Hmdx Definition


Wind Chill Definition


Weather Definition


00:00 22.4 14.2 60 0.0   0   99.21 26   LegendNANA
01:00 20.8 13.8 64 0.0 20 2   99.20     LegendNANA
02:00 20.4 13.8 66 0.0 20 2   99.24     LegendNANA
03:00 19.9 13.9 68 0.0 21 2   99.25     LegendNANA
04:00 19.4 13.8 70 0.0 19 2   99.29     LegendNANA
05:00 19.2 13.7 71 0.0 21 3   99.31     LegendNANA
06:00 19.8 13.9 69 0.0 21 3   99.32     LegendNANA
07:00 21.7 14.2 62 0.0 21 3   99.32 25   LegendNANA
08:00 23.8 15.0 58 0.0 20 5   99.33 28   LegendNANA
09:00 25.7 15.7 54 0.0 22 3   99.29 30   LegendNANA
10:00 27.6 16.2 50 0.0 20 7   99.23 32   LegendNANA
11:00 28.7 15.6 45 0.0 20 14   99.21 33   LegendNANA
12:00 29.7 16.1 44 0.0 20 11   99.20 34   LegendNANA
13:00 30.7 16.7 43 0.0 19 8   99.13 36   LegendNANA
14:00 31.2 18.2 46 0.0 20 9   99.07 37   LegendNANA
15:00 31.5 18.0 45 0.0 20 10   99.06 38   LegendNANA
16:00 32.5 17.8 42 0.0 20 9   99.01 38   LegendNANA
17:00 32.6 17.1 40 0.0 20 9   99.00 38   LegendNANA
18:00 32.3 17.8 42 0.0 20 7   98.98 38   LegendNANA
19:00 31.6 18.1 45 0.0 20 6   98.96 38   LegendNANA
20:00 30.3 18.1 48 0.0 19 3   98.95 36   LegendNANA
21:00 29.2 17.2 48 0.0 19 6   98.95 35   LegendNANA
22:00 28.4 17.5 52 0.0 19 8   98.94 34   LegendNANA
23:00 27.5 17.7 55 0.0 20 9   98.97 33   LegendNANA

Notes on Data Quality.

Legend

  • E = Estimated
  • M = Missing
  • NA = Not Available*
  • [empty] = Indicates an unobserved value
Date modified: